C/2020 H7 ( Lemmon )

Japanese version
Home page
Updated on July 8, 2020

---------------------------------------------------------------------

* Profile

Discovery Date April 29, 2020
Magnitude 20.6 mag
Discoverer G. J. Leonard (Mount Lemmon Survey)

* Pictures

* Orbital Elements

Epoch 2020 May 31.0 TT = JDT 2459000.5
T 2020 June 3.51585 TT                                  Rudenko
q   4.4200958            (2000.0)            P               Q
z  +0.0001390      Peri.   82.77008     -0.32243690     -0.85150166
 +/-0.0000439      Node   323.52847     -0.86896079     +0.43950727
e   0.9993857      Incl.  135.92284     +0.37542189     +0.28596902
From 160 observations 2020 Apr. 29-June 23, mean residual 0".4.

* Magnitudes Graph

        m1 = 10.5 + 5 log d + 10.0 log r

---------------------------------------------------------------------

The orbital elements are published on M.P.E.C. 2020-M114.
The magnitudes graphs are made with Comet for Windows.

---------------------------------------------------------------------

Copyright(C) Seiichi Yoshida (comet@aerith.net). All rights reserved.